Погода в Кашкайше

Португалия     38°42′29″N   9°26′03″W
темп.,
°C
ветер,
м/с
пор.,
м/с
влажн.,
%
обл.,
%
осадки,
мм/ч
давл.,
гПа
погр.,
м
15 мая, сб
сб1501:00+16ссз469215 0.0 1020234
04:00+16ссз349020 0.0 1019193
07:00+16ссз2387100 0.0 1019138
10:00+17зсз238988 0.0 1020200
13:00+17зсз448985 0.0 1020271
16:00+18сз478797 0.0 1019305
19:00+18сз468940 0.0 1018224
22:00+17сз4692100 0.0 1019120
16 мая, вс
вс1601:00+17сз339389 0.0 101848
04:00+17ссз459371 0.0 1018105
07:00+16ссз339410 0.0 101866
10:00+17сз459253 0.0 1019209
13:00+17ссз688720 0.0 1019280
16:00+18ссз688798 0.0 1018332
19:00+17ссз6992100 0.0 1019301
22:00+17ссз479492 0.0 1019195
17 мая, пн
пн1701:00+17ссз4793100 0.0 1019188
04:00+17ссз589685 0.0 1018288
07:00+16с7992100 0.1 1020441
10:00+16с6780100 0.0 1021444
13:00+16с91077100 0.0 1022524
16:00+16ссз9117777 0.0 1022559
19:00+16с101280100 0.0 1023590
22:00+16с101278100 0.0 1024557
18 мая, вт
вт1801:00+15с91273100 0.0 1024525
04:00+15с9127393 0.0 1024521
07:00+15с8127382 0.0 1024478
10:00+17с810694 0.0 1025404
13:00+17с910681 0.0 1025290
16:00+17с91168100 0.0 1024296
19:00+17с9127017 0.0 1024336
22:00+16с9147297 0.0 1025377
19 мая, ср
ср1901:00+16с914725 0.0 1024397
04:00+16с7137317 0.0 1023384
07:00+16с611758 0.0 1023314
10:00+17с6772100 0.0 1023228
13:00+18с89766 0.0 1023225
16:00+18с812735 0.0 1022266
19:00+17с8127318 0.0 1022279
22:00+17с8147720 0.0 1023313